Regional Weather Roundup
Issued by NWS Albany, NY

Home | Current Version | Previous Version | Text Only | Print | Product List | Glossary On
Versions: 1 2 3 4 5 6 7 8 9 10 11 12 13 14 15 16 17 18 19 20 21 22 23 24 25 26 27 28 29 30 31 32 33 34 35 36 37 38 39 40 41 42 43 44 45 46 47 48 49 50
000
ASUS41 KALY 260210
RWRALY

NEW YORK STATE HOURLY WEATHER ROUNDUP
NATIONAL WEATHER SERVICE ALBANY NY
1000 PM EDT THU MAY 25 2017

NOTE: "FAIR" INDICATES FEW OR NO CLOUDS BELOW 12,000 FEET WITH NO
SIGNIFICANT WEATHER AND/OR NO OBSTRUCTIONS TO VISIBILITY.

NYZ032-033-038>043-046>054-057>066-NYZ062>081-082-084-260300-
EAST


CITY           SKY/WX    TMP DP  RH WIND       PRES   REMARKS
ALBANY         LGT RAIN  56  52  86 NE8       29.60F
GLENS FALLS    CLOUDY    54  51  90 N6        29.64F
POUGHKEEPSIE   CLOUDY    57  53  86 N8        29.54F
NEWBURGH       CLOUDY    57  57 100 E8        29.56F FOG
MONTGOMERY     LGT RAIN  57  55  93 NE10      29.54F FOG
WHITE PLAINS     N/A     57  55  93 E9        29.50F FOG
ISLIP          LGT RAIN  58  58 100 NE7       29.51R VSB 1/2
NEW YORK CITY  DRIZZLE   57  56  96 NE20      29.49S FOG
CENTRAL PARK   CLOUDY    57  56  96 E10G17    29.52S
$$

NYZ005>009-017-018-044>046-055-056-260300-
CENTRAL


CITY           SKY/WX    TMP DP  RH WIND       PRES   REMARKS
FULTON         CLOUDY    57  53  86 VRB6      29.54S
SYRACUSE       CLOUDY    56  55  97 E8        29.54R
ROME           CLOUDY    57  53  86 E10       29.58S
ELMIRA         CLOUDY    61  56  83 E3        29.50F
BINGHAMTON     CLOUDY    55  53  93 E5        29.53F
MONTICELLO     CLOUDY    54  52  94 E9        29.56R
$$

NYZ026>034-041>043-087-260300-
NORTH


CITY           SKY/WX    TMP DP  RH WIND       PRES   REMARKS
WATERTOWN      CLOUDY    56  56 100 NE8       29.57R
FORT DRUM      NOT AVBL
OGDENSBURG     CLOUDY    56  55  96 NE10      29.62R
MASSENA        CLOUDY    56  55  97 NE15      29.66R
SARANAC LAKE   LGT RAIN  52  49  89 E3        29.64R
PLATTSBURGH    CLOUDY    55  52  89 CALM      29.69S
$$

NYZ001>004-010>016-019>021-085-260300-
WEST


CITY           SKY/WX    TMP DP  RH WIND       PRES   REMARKS
NIAGARA FALLS  CLOUDY    59  55  87 E5        29.52R
BUFFALO        MOCLDY    58  55  90 CALM      29.52R
DUNKIRK        MOCLDY    56  56 100 W6        29.53R
JAMESTOWN      CLEAR     54  48  82 CALM      29.54R
WELLSVILLE     PTCLDY    56  54  93 N3        29.54S
ROCHESTER      DRIZZLE   60  58  92 E6        29.52R
PENN YAN       CLOUDY    60  55  83 CALM      29.52S
$$

             KEY
       WCI = WIND CHILL INDEX
       VSB = VISIBILITY
       HX  = HEAT INDEX
$$



USA.gov is the U.S. government's official web portal to all federal, state and local government web resources and services.